Home   Weather   Bogota   Past weeks

Flag for Colombia Past Weather in Bogota, Colombia — Yesterday and Last 2 Weeks

Now
64 °F

Partly sunny.


Feels Like: 64 °F
Forecast: 51 / 62 °F
Wind: 8 mph from Northeast

Location: Bogota / Eldorado

Current Time: Dec 7, 2016 at 1:35:44 pm

Latest Report: Dec 7, 2016 at 1:00 pm


Visibility: N/A

Pressure: 30.31 "Hg (22.29 "Hg at 2618m altitude)

Humidity: 49%

Dew Point: 45 °F

Location of BogotaLocation

Past Weather in Bogota — Graph

°F

Bogota Temperature Yesterday

Maximum temperature yesterday: 66 °F (at 11:00 am)
Minimum temperature yesterday: 43 °F (at 6:00 am)
Average temperature yesterday: 56 °F

High & Low Weather Summary for the Past Weeks

 TemperatureHumidityPressure
High68 °F (Nov 22, 12:00 pm)100% (Nov 24, 5:00 am)30.39 "Hg (Nov 24, 5:00 am)
Low43 °F (Dec 6, 6:00 am)46% (Nov 22, 12:00 pm)30.19 "Hg (Nov 22, 4:00 pm)
Average56 °F83%30.30 "Hg
* Reported Nov 22 12:00 pm — Dec 7 12:00 pm, Bogota, Weather by CustomWeather, © 2016

Note: Actual official high and low records may vary slightly from our data, if they occured in-between our weather recording intervals... More about our weather records

Advertising

Bogota Weather History for the Previous 24 Hours

Scroll right to see more
 ConditionsComfort  
Time TempWeatherWind HumidityBarometerVisibility
12:00 pm
Wed, Dec 7
64 °FMild.N/A52%30.34 "HgN/A
11:00 am63 °FPartly sunny.9 mph56%30.36 "HgN/A
10:00 am61 °FPartly sunny.5 mph63%30.38 "HgN/A
9:00 am57 °FBroken clouds.6 mph72%30.39 "HgN/A
8:00 am54 °FBroken clouds.5 mph82%30.37 "HgN/A
7:00 am54 °FScattered clouds.3 mph82%30.34 "HgN/A
6:00 am52 °FScattered clouds.9 mph82%30.32 "HgN/A
5:00 am50 °FPassing clouds.6 mph88%30.29 "HgN/A
4:00 am52 °FPassing clouds.8 mph82%30.27 "HgN/A
3:00 am52 °FPassing clouds.8 mph88%30.27 "HgN/A
2:00 am50 °FPassing clouds.8 mph94%30.29 "HgN/A
1:00 am48 °FPassing clouds.7 mph94%30.32 "HgN/A
12:00 am52 °FPassing clouds.7 mph82%30.33 "HgN/A
11:00 pm
Tue, Dec 6
48 °FPassing clouds.3 mph94%30.33 "HgN/A
10:00 pm50 °FPassing clouds.2 mph94%30.34 "HgN/A
9:00 pm52 °FPassing clouds.2 mph88%30.34 "HgN/A
8:00 pm52 °FPassing clouds.N/A94%30.32 "HgN/A
7:00 pm55 °FPassing clouds.5 mph82%30.29 "HgN/A
6:00 pm63 °FPassing clouds.14 mph56%30.26 "HgN/A
5:00 pm64 °FPartly sunny.15 mph49%30.25 "HgN/A
4:00 pm64 °FScattered clouds.14 mph49%30.25 "HgN/A
3:00 pm66 °FScattered clouds.7 mph49%30.26 "HgN/A
2:00 pm64 °FPartly sunny.9 mph56%30.27 "HgN/A
1:00 pm66 °FPartly sunny.9 mph49%30.30 "HgN/A
Weather by CustomWeather, © 2016

See weather overviewHow to use our weather pages